Regional Weather Roundup
Issued by NWS

Home | Current Version | Previous Version | Graphics & Text | Print | Product List | Glossary On
Versions: 1 2 3 4 5 6 7 8 9 10 11 12 13 14 15 16 17 18 19 20 21 22 23 24 25 26 27 28 29 30 31 32 33 34 35 36 37 38 39 40 41 42 43 44 45 46 47 48 49 50
000
ASUS43 KFSD 041010
RWRSD

WEATHER ROUNDUP FOR SOUTH DAKOTA
NATIONAL WEATHER SERVICE SIOUX FALLS SD
500 AM CDT TUE AUG 04 2015

NOTE: "FAIR" INDICATES FEW OR NO CLOUDS BELOW 12,000 FEET WITH NO
SIGNIFICANT WEATHER AND/OR OBSTRUCTIONS TO VISIBILITY.


SDZ001>005-009-010-012>017-041100-
NORTHWEST AND NORTH CENTRAL SOUTH DAKOTA

CITY           SKY/WX    TMP DP  RH WIND       PRES   REMARKS
FAITH            N/A     65  54  67 SE15      29.94F
MOBRIDGE       PTCLDY    62  57  83 E9        29.95R
$$

SDZ012>016-024>037-041>051-057-063-072>074-041100-
SOUTHWEST AND SOUTH CENTRAL SOUTH DAKOTA

CITY           SKY/WX    TMP DP  RH WIND       PRES   REMARKS
RAPID CTY ARPT MOCLDY    64  58  80 SE6       29.94R
PIERRE         CLOUDY    66  57  72 S10       29.96R
CUSTER         PTCLDY    56  53  90 N5        30.05F
ELLSWORTH AFB  CLOUDY    65  59  79 SE9       29.94R
PHILIP         CLOUDY    64  61  90 E12       29.90F
PINE RIDGE     CLEAR     64  61  90 NW5       29.93R
SPEARFISH      FAIR      66  55  68 SE8       29.94S
WINNER         TSTM      65  61  87 S8        29.99R FOG
$$

SDZ004>011-016>023-039-040-041100-
NORTHEAST SOUTH DAKOTA

CITY           SKY/WX    TMP DP  RH WIND       PRES   REMARKS
ABERDEEN       CLEAR     55  51  86 CALM      29.96S
WATERTOWN      CLEAR     53  48  83 S6        29.98R
BROOKINGS      CLEAR     55  48  76 CALM      30.00R
SISSETON         N/A     48  46  93 CALM      29.94F
$$

SDZ017-020-022-023-036>040-048>070-041100-
SOUTHEAST SOUTH DAKOTA

CITY           SKY/WX    TMP DP  RH WIND       PRES   REMARKS
SIOUX FALLS    CLOUDY    59  55  87 E6        29.98R
HURON          MOCLDY    61  54  77 SE6       29.96R
CHAMBERLAIN    CLOUDY    65  61  86 SE3       29.97R
MITCHELL       CLOUDY    63  59  87 SE7       29.96R
YANKTON        CLOUDY    64  61  88 E6        29.96R
$$

ABBREVIATIONS USED IN REMARKS
   TC - TEMPERATURE IN CELSIUS
  WCI - WIND CHILL INDEX
   HX - HEAT INDEX
  VSB - VISIBILITY



USA.gov is the U.S. government's official web portal to all federal, state and local government web resources and services.